ISAT
1 43879U 18111D   24336.48269986  .00029403  00000-0  14025-2 0  9995
2 43879  97.6067 242.1137 0012610 131.3068 228.9254 15.18967188322711
UWE-4
1 43880U 18111E   24336.68649569  .00027162  00000-0  13709-2 0  9996
2 43880  97.6002 241.8215 0015441 143.1539 217.0758 15.16976607322750
Sparrow
1 43881U 18111F   24335.72951132  .00031583  00000-0  14773-2 0  9997
2 43881  97.6182 243.6240 0008330 166.7895 193.3559 15.19669254324693
Prox-1
1 44339U 19036A   24336.07467951  .00019467  00000-0  29098-2 0  9996
2 44339  23.9976 226.9923 0007663  66.5365 293.5936 14.73197213289911
SONATE
1 44400U 19038Q   24336.29733431  .00064812  00000-0  11911-2 0  9999
2 44400  97.7122 339.4838 0009764 216.6524 143.4059 15.48957733299808
Taurus 1
1 44530U 19059C   24336.79813371  .00017121  00000-0  35121-2 0  9993
2 44530  98.5896 102.1541 0010651 258.2229 101.7776 14.60713969276189
Duchifat 3
1 44854U 19089C   24336.70879357  .00044831  00000-0  16117-2 0  9994
2 44854  36.9507 104.5404 0010678  60.8097 299.3721 15.27636244273721
TO-108
1 44881U 19093C   24336.84332665  .00003220  00000-0  38519-3 0  9998
2 44881  97.8149  50.3647 0015066 130.5652 229.6877 14.84766589267914
FloripaSat 1
1 44885U 19093G   24336.73829320  .00013405  00000-0  12448-2 0  9997
2 44885  97.8322  58.3913 0012308 117.8458 242.4011 14.94457917268358
RS-44
1 44909U 19096E   24335.79379981  .00000036  00000-0  98009-4 0  9990
2 44909  82.5220 354.0663 0217870  21.9790 339.0481 12.79736510230281
UPMSat 2
1 46276U 20061E   24336.86180815  .00046736  00000-0  96169-3 0  9999
2 46276  97.2750  42.1438 0000440 183.3166 176.8081 15.45811691235962
AmicalSat
1 46287U 20061R   24335.96528169  .00254662  00000-0  19284-2 0  9990
2 46287  97.3209  45.9837 0002402 292.2039  67.8969 15.71628696235387
SALSAT
1 46495U 20068K   24335.89402137  .00015109  00000-0  74765-3 0  9993
2 46495  97.8382 300.0955 0015035  99.0437 261.2498 15.17810017229551
IDEASSat
1 47458U 21006AX  24335.57877777  .00825390  31123-3  18557-2 0  9997
2 47458  97.2898  39.4384 0004478 297.7047  62.3776 15.97736194214496
CubeSX-Sirius-HSE
1 47951U 21022V   24336.84706771  .00065649  00000-0  15614-2 0  9990
2 47951  97.4407 236.1386 0006505 263.3660  96.6846 15.41391185204249
CubeSX-HSE
1 47952U 21022W   24336.71440217  .00068277  00000-0  16038-2 0  9998
2 47952  97.4404 236.1453 0006508 261.0644  98.9866 15.41755382204231
KSU-Cubesat
1 47954U 21022Y   24335.98809877  .00101635  00000-0  17831-2 0  9997
2 47954  97.4406 237.9690 0003885 244.4924 115.5926 15.50178011204004
GRBAlpha
1 47959U 21022AD  24336.80228598  .00067625  00000-0  15892-2 0  9994
2 47959  97.4406 236.4030 0006422 260.6865  99.3655 15.41745524203078
Orbicraft-Zorkiy
1 47960U 21022AE  24336.77982986  .00085681  00000-0  16755-2 0  9991
2 47960  97.4446 238.5608 0004523 252.8174 107.2581 15.47119673203875
TUBIN
1 48900U 21059X   24336.73260883  .00043647  00000-0  10385-2 0  9996
2 48900  97.6615 127.7036 0005250 211.9490 148.1438 15.41493610190622
LEDSAT
1 49069U 21073D   24336.62715517  .00050315  00000-0  13725-2 0  9997
2 49069  97.4179  47.7048 0015345  50.4741 309.7857 15.37164724182051
CUTE
1 49263U 21088D   24336.03353774  .00053388  00000-0  16502-2 0  9996
2 49263  97.4767  42.0935 0010746 209.4027 150.6612 15.33279036175071
TeikyoSat 4
1 49396U 21102B   24336.84265621  .00005209  00000-0  35955-3 0  9995
2 49396  97.4384  16.0036 0014673  67.1661 293.1114 15.06110987167971
Z-Sat
1 49399U 21102E   24336.81844410  .00009638  00000-0  56972-3 0  9996
2 49399  97.4086  18.0706 0020195  44.3455 315.9389 15.11507194168281
KOSEN 1
1 49402U 21102H   24336.39355230  .00014268  00000-0  74537-3 0  9993
2 49402  97.4014  19.8311 0018001  27.5378 332.6805 15.15862609168433
HO-113
1 50466U 21131B   24336.86804274  .00001837  00000-0  59342-3 0  9991
2 50466  98.5218  61.1587 0003925   0.0665   0.0523 14.40307075154135
IRIS-A
1 51044U 22002BN  24335.64610201  .00064121  00000-0  12734-2 0  9990
2 51044  97.3624  42.8667 0004765 151.2786 208.8726 15.46759489160000
Planetum 1
1 52738U 22057G   24334.51223436  .16479580  26697-5  24945-3 0  9995
2 52738  97.5508 111.5244 0009582 276.9617  83.0596 16.48177112140342
Foresail-1
1 52766U 22057AL  24336.12763499  .00060531  00000-0  11892-2 0  9999
2 52766  97.5971 107.3229 0007589 255.8035 104.2372 15.47071041140113
SNUGLITE 2
1 52899U 22065F   24336.32247947  .00004038  00000-0  81163-3 0  9991
2 52899  98.1417 114.6165 0007430 358.1465   1.9708 14.62141741128675
IO-117
1 53106U 22080B   24331.77042742 -.00000003  00000-0  00000-0 0  9997
2 53106  70.1300 136.0386 0008362  70.8561 289.3004  6.42557781 55710
FO-118
1 54684U 22167C   24336.78298068  .00134541  00000-0  20211-2 0  9997
2 54684  97.6145 128.1499 0008560 271.8505  88.1768 15.54368276110087
SSS-2B
1 56184U 23054G   24336.82168858  .00453676  00000-0  18761-2 0  9998
2 56184  97.3373 239.4265 0004820 103.0528 257.1281 15.84711937 92184
SO-120
1 56992U 23084BU  24335.58858425  .00162723  00000-0  23150-2 0  9994
2 56992  97.5381  99.4361 0005140 173.0239 187.1087 15.55785105 81769
MRC-100
1 56993U 23084BV  24335.80602740  .00321826  00000-0  26746-2 0  9992
2 56993  97.5339 101.3244 0003101 220.9170 139.1859 15.69176507 81913
UmKA 1 (RS40S)
1 57172U 23091G   24336.86815085  .00012500  00000-0  74001-3 0  9999
2 57172  97.5892  27.4214 0014056 268.1776  91.7844 15.11481473 78785
CubeBel-2 (EU11S)
1 57175U 23091K   24336.87710114  .00017517  00000-0  97754-3 0  9993
2 57175  97.5893  27.7048 0012353 280.3131  79.6707 15.13549167 78809
VERONIKA
1 58261U 23174F   24336.76399217  .00058659  00000-0  16932-2 0  9997
2 58261  97.4426  51.2641 0009113  11.7923 348.3532 15.35434401 59284
KAFASAT
1 58317U 23174BP  24336.13411394  .00095709  00000-0  20263-2 0  9990
2 58317  97.4355  52.4247 0007417 340.3424  19.7537 15.44734549 59329
ENSO
1 58470U 23185J   24336.77022445  .00045795  00000-0  13410-2 0  9993
2 58470  97.4048  42.7191 0010518  48.6785 311.5361 15.35033535 55738
EIRSAT-1
1 58472U 23185L   24336.80755945  .00054403  00000-0  14804-2 0  9991
2 58472  97.4040  43.0910 0009682  47.3166 312.8893 15.37292474 55762
SONATE-2
1 59112U 24043Q   24335.91907213  .00025335  00000-0  97776-3 0  9997
2 59112  97.4953  98.9388 0013607  71.6460 288.6257 15.26186128 41163
MO-122
1 60209U 24125G   24335.83234842  .00026026  00000-0  99728-3 0  9996
2 60209  97.2987 184.6228 0024755  96.3056 264.1003 15.26211231 22761
GRBBeta
1 60237U 24128C   24335.70505759  .00009117  00000-0  74645-3 0  9997
2 60237  61.9949  23.5954 0029210   8.9125 351.2477 14.99567388 21546
Curium One
1 60242U 24128H   24335.53750282  .00015136  00000-0  12111-2 0  9994
2 60242  61.9852  24.2767 0029542 359.9731   0.1352 15.00067173 21525
ROBUSTA-3A
1 60243U 24128J   24336.42657762  .00014866  00000-0  11991-2 0  9997
2 60243  61.9919  21.4863 0027741 358.0026   2.0948 14.99809976 21650
CatSat
1 60246U 24125J   24336.53098701  .00022807  00000-0  90463-3 0  9997
2 60246  97.2793 186.1195 0049948  49.7773 310.7818 15.24198645 20970
CosmoGirlSat
1 60953U 98067WT  24335.98515289  .01028722  52567-3  20298-2 0  9990
2 60953  51.6152 197.4680 0011229 227.1652 132.8415 15.99369512 14672
Sakura
1 60954U 98067WU  24331.92073042  .02385888  73236-2  20920-2 0  9994
2 60954  51.6117 216.7989 0010324 216.2319 143.7999 16.14071451 14055
CySat-1
1 61501U 98067WZ  24336.33738880  .00299444  00000-0  23134-2 0  9998
2 61501  51.6309 203.6651 0012524 223.0405 136.9614 15.70356921  8458
DORA
1 61502U 98067XA  24332.70883455  .05178733  11718-4  30558-2 0  9997
2 61502  51.5964 218.3602 0015234 210.2249 149.7891 16.17571853  7924
AO-123
1 99130U 20499A   24336.53328704 -.00092606  00000-0 -38712-2 0 00007
2 99130 097.3788 200.9113 0018240 144.0968 341.4669 15.23533309000017
